| time (UTC) | temp F | wind direction | speed MPH | gust MPH | rain 1hr in | rain 24hr in | rain mn in | humidity % | barometer mb |
| 20260906010055 | 72 | 248 | 2.0 | 5.0 | 0.00 | 0.00 | 0.00 | 49 | 1012.1 |
| 20260906004528 | 73 | 263 | 1.0 | 4.0 | 0.00 | 0.00 | 0.00 | 47 | 1012.2 |
| 20260906003027 | 73 | 126 | 1.0 | 5.0 | 0.00 | 0.00 | 0.00 | 48 | 1012.2 |
| 20260906001533 | 75 | 225 | 2.0 | 6.0 | 0.00 | 0.00 | 0.00 | 46 | 1012.3 |
| 20260906000021 | 75 | 247 | 2.0 | 5.0 | 0.00 | 0.00 | 0.00 | 45 | 1012.3 |
| 20260905234519 | 75 | 217 | 3.0 | 7.0 | 0.00 | 0.00 | 0.00 | 44 | 1012.4 |
| 20260905233019 | 73 | 217 | 1.0 | 5.0 | 0.00 | 0.00 | 0.00 | 44 | 1012.6 |
| 20260905231533 | 74 | 175 | 1.0 | 4.0 | 0.00 | 0.00 | 0.00 | 41 | 1012.7 |
| 20260905230017 | 76 | 227 | 2.0 | 5.0 | 0.00 | 0.00 | 0.00 | 40 | 1012.7 |
| 20260905224520 | 75 | 204 | 2.0 | 8.0 | 0.00 | 0.00 | 0.00 | 41 | 1012.8 |
| 20260905223029 | 74 | 9 | 1.0 | 7.0 | 0.00 | 0.00 | 0.00 | 43 | 1012.8 |
| 20260905221515 | 74 | 134 | 1.0 | 4.0 | 0.00 | 0.00 | 0.00 | 43 | 1012.8 |
| 20260905220014 | 75 | 168 | 1.0 | 7.0 | 0.00 | 0.00 | 0.00 | 41 | 1012.9 |
| 20260905214515 | 74 | 245 | 1.0 | 6.0 | 0.00 | 0.00 | 0.00 | 41 | 1012.9 |
| 20260905213019 | 74 | 257 | 2.0 | 5.0 | 0.00 | 0.00 | 0.00 | 42 | 1013.1 |
| 20260905211532 | 74 | 161 | 3.0 | 9.0 | 0.00 | 0.00 | 0.00 | 42 | 1013.3 |
| 20260905210012 | 75 | 214 | 1.0 | 6.0 | 0.00 | 0.00 | 0.00 | 40 | 1013.4 |
| 20260905204520 | 76 | 221 | 2.0 | 11.0 | 0.00 | 0.00 | 0.00 | 39 | 1013.4 |
| 20260905203009 | 76 | 223 | 2.0 | 9.0 | 0.00 | 0.00 | 0.00 | 42 | 1013.3 |
| 20260905201509 | 76 | 171 | 3.0 | 8.0 | 0.00 | 0.00 | 0.00 | 39 | 1013.5 |
| 20260905200007 | 77 | 332 | 2.0 | 10.0 | 0.00 | 0.00 | 0.00 | 40 | 1013.5 |
| 20260905194508 | 77 | 290 | 2.0 | 5.0 | 0.00 | 0.00 | 0.00 | 40 | 1013.5 |
| 20260905193110 | 77 | 207 | 1.0 | 7.0 | 0.00 | 0.00 | 0.00 | 40 | 1013.7 |
| 20260905191511 | 77 | 256 | 3.0 | 8.0 | 0.00 | 0.00 | 0.00 | 42 | 1014.0 |
| 20260905190003 | 76 | 150 | 2.0 | 6.0 | 0.00 | 0.00 | 0.00 | 44 | 1014.1 |
| 20260905184501 | 75 | 231 | 3.0 | 7.0 | 0.00 | 0.00 | 0.00 | 42 | 1014.0 |
| 20260905183111 | 74 | 279 | 2.0 | 5.0 | 0.00 | 0.00 | 0.00 | 42 | 1014.2 |
| 20260905181556 | 74 | 168 | 2.0 | 6.0 | 0.00 | 0.00 | 0.00 | 43 | 1014.1 |
| 20260905180056 | 74 | 175 | 3.0 | 7.0 | 0.00 | 0.00 | 0.00 | 40 | 1014.1 |
| 20260905174551 | 73 | 246 | 4.0 | 8.0 | 0.00 | 0.00 | 0.00 | 37 | 1013.9 |
| 20260905173048 | 72 | 258 | 3.0 | 7.0 | 0.00 | 0.00 | 0.00 | 40 | 1013.7 |
| 20260905171550 | 71 | 207 | 1.0 | 8.0 | 0.00 | 0.00 | 0.00 | 42 | 1013.5 |
| 20260905170047 | 69 | 209 | 2.0 | 8.0 | 0.00 | 0.00 | 0.00 | 46 | 1013.3 |
| 20260905164537 | 65 | 183 | 1.0 | 8.0 | 0.00 | 0.00 | 0.00 | 51 | 1013.4 |
| 20260905163034 | 63 | 171 | 3.0 | 7.0 | 0.00 | 0.00 | 0.00 | 50 | 1013.3 |
| 20260905161531 | 62 | 177 | 2.0 | 3.0 | 0.00 | 0.00 | 0.00 | 43 | 1013.2 |
| 20260905160029 | 62 | 211 | 2.0 | 5.0 | 0.00 | 0.00 | 0.00 | 34 | 1013.2 |
| 20260905154528 | 61 | 192 | 3.0 | 7.0 | 0.00 | 0.00 | 0.00 | 29 | 1013.2 |
| 20260905153027 | 61 | 227 | 2.0 | 6.0 | 0.00 | 0.00 | 0.00 | 30 | 1013.0 |
| 20260905151533 | 60 | 193 | 2.0 | 7.0 | 0.00 | 0.00 | 0.00 | 32 | 1012.9 |
| 20260905150025 | 60 | 162 | 3.0 | 9.0 | 0.00 | 0.00 | 0.00 | 33 | 1012.7 |
| 20260905144529 | 61 | 142 | 2.0 | 6.0 | 0.00 | 0.00 | 0.00 | 34 | 1012.5 |
| 20260905143020 | 62 | 170 | 3.0 | 8.0 | 0.00 | 0.00 | 0.00 | 36 | 1012.4 |
| 20260905141518 | 61 | 168 | 2.0 | 9.0 | 0.00 | 0.00 | 0.00 | 39 | 1012.1 |
| 20260905140017 | 60 | 226 | 2.0 | 4.0 | 0.00 | 0.00 | 0.00 | 46 | 1011.8 |
| 20260905134518 | 60 | 139 | 3.0 | 9.0 | 0.00 | 0.00 | 0.00 | 43 | 1011.4 |
| 20260905133015 | 61 | 142 | 2.0 | 8.0 | 0.00 | 0.00 | 0.00 | 44 | 1011.1 |
| 20260905131516 | 62 | 174 | 2.0 | 7.0 | 0.00 | 0.00 | 0.00 | 49 | 1011.0 |
| 20260905130014 | 61 | 203 | 3.0 | 8.0 | 0.00 | 0.00 | 0.00 | 48 | 1010.9 |
| 20260905124516 | 61 | 234 | 3.0 | 9.0 | 0.00 | 0.00 | 0.00 | 49 | 1010.9 |
| 20260905123012 | 61 | 204 | 3.0 | 8.0 | 0.00 | 0.00 | 0.00 | 49 | 1010.8 |
| 20260905121512 | 61 | 220 | 2.0 | 6.0 | 0.00 | 0.00 | 0.00 | 52 | 1010.7 |
| 20260905120010 | 61 | 204 | 3.0 | 9.0 | 0.00 | 0.00 | 0.00 | 53 | 1010.7 |
| 20260905114509 | 61 | 194 | 3.0 | 9.0 | 0.00 | 0.00 | 0.00 | 56 | 1010.8 |
| 20260905113006 | 60 | 205 | 2.0 | 8.0 | 0.00 | 0.00 | 0.00 | 42 | 1010.9 |
| 20260905111505 | 60 | 190 | 3.0 | 10.0 | 0.00 | 0.00 | 0.00 | 50 | 1010.8 |
| 20260905110002 | 59 | 178 | 3.0 | 7.0 | 0.00 | 0.00 | 0.00 | 41 | 1011.0 |
| 20260905104612 | 58 | 171 | 3.0 | 8.0 | 0.00 | 0.00 | 0.00 | 32 | 1011.1 |
| 20260905103059 | 58 | 169 | 3.0 | 11.0 | 0.00 | 0.00 | 0.00 | 35 | 1011.1 |
| 20260905101601 | 58 | 199 | 4.0 | 14.0 | 0.00 | 0.00 | 0.00 | 39 | 1011.0 |
| 20260905100054 | 57 | 172 | 4.0 | 8.0 | 0.00 | 0.00 | 0.00 | 39 | 1011.0 |
| 20260905094553 | 57 | 185 | 4.0 | 7.0 | 0.00 | 0.00 | 0.00 | 36 | 1011.2 |
| 20260905093051 | 57 | 185 | 3.0 | 15.0 | 0.00 | 0.00 | 0.00 | 32 | 1011.3 |
| 20260905091547 | 57 | 225 | 3.0 | 8.0 | 0.00 | 0.00 | 0.00 | 26 | 1011.2 |
| 20260905090112 | 57 | 179 | 3.0 | 9.0 | 0.00 | 0.00 | 0.00 | 23 | 1011.4 |
| 20260905084543 | 57 | 171 | 3.0 | 8.0 | 0.00 | 0.00 | 0.00 | 22 | 1011.5 |
| 20260905083041 | 57 | 214 | 4.0 | 9.0 | 0.00 | 0.00 | 0.00 | 23 | 1011.6 |
| 20260905081540 | 57 | 150 | 4.0 | 13.0 | 0.00 | 0.00 | 0.00 | 25 | 1011.6 |
| 20260905080037 | 57 | 187 | 4.0 | 12.0 | 0.00 | 0.00 | 0.00 | 26 | 1011.6 |
| 20260905074536 | 57 | 178 | 4.0 | 10.0 | 0.00 | 0.00 | 0.00 | 27 | 1011.8 |
| 20260905073039 | 57 | 125 | 3.0 | 10.0 | 0.00 | 0.00 | 0.00 | 27 | 1011.9 |
| 20260905071529 | 57 | 227 | 4.0 | 8.0 | 0.00 | 0.00 | 0.00 | 22 | 1011.8 |
| 20260905070026 | 57 | 236 | 4.0 | 9.0 | 0.00 | 0.00 | 0.00 | 20 | 1011.7 |
| 20260905064526 | 57 | 173 | 4.0 | 12.0 | 0.00 | 0.00 | 0.00 | 18 | 1011.6 |
| 20260905063025 | 58 | 248 | 4.0 | 12.0 | 0.00 | 0.00 | 0.00 | 19 | 1011.6 |
| 20260905061535 | 58 | 197 | 4.0 | 9.0 | 0.00 | 0.00 | 0.00 | 19 | 1011.6 |
| 20260905060024 | 58 | 178 | 3.0 | 8.0 | 0.00 | 0.00 | 0.00 | 19 | 1011.5 |
| 20260905054530 | 58 | 129 | 3.0 | 10.0 | 0.00 | 0.00 | 0.00 | 19 | 1011.6 |
| 20260905053022 | 58 | 190 | 4.0 | 8.0 | 0.00 | 0.00 | 0.00 | 21 | 1011.7 |
| 20260905051524 | 58 | 225 | 3.0 | 8.0 | 0.00 | 0.00 | 0.00 | 23 | 1011.7 |
| 20260905050022 | 58 | 192 | 3.0 | 7.0 | 0.00 | 0.00 | 0.00 | 24 | 1011.6 |
| 20260905044527 | 59 | 215 | 2.0 | 7.0 | 0.00 | 0.00 | 0.00 | 24 | 1011.4 |
| 20260905043021 | 59 | 229 | 3.0 | 8.0 | 0.00 | 0.00 | 0.00 | 23 | 1011.3 |
| 20260905041529 | 59 | 227 | 3.0 | 10.0 | 0.00 | 0.00 | 0.00 | 22 | 1011.3 |
| 20260905040020 | 59 | 247 | 2.0 | 9.0 | 0.00 | 0.00 | 0.00 | 22 | 1011.2 |
| 20260905034519 | 59 | 218 | 2.0 | 8.0 | 0.00 | 0.00 | 0.00 | 26 | 1011.1 |
| 20260905033019 | 60 | 190 | 2.0 | 6.0 | 0.00 | 0.00 | 0.00 | 27 | 1011.0 |
| 20260905031520 | 60 | 196 | 2.0 | 7.0 | 0.00 | 0.00 | 0.00 | 24 | 1010.8 |
| 20260905030018 | 61 | 192 | 2.0 | 8.0 | 0.00 | 0.00 | 0.00 | 26 | 1010.5 |
| 20260905024517 | 61 | 198 | 1.0 | 6.0 | 0.00 | 0.00 | 0.00 | 31 | 1010.3 |
| 20260905023017 | 61 | 215 | 2.0 | 5.0 | 0.00 | 0.00 | 0.00 | 36 | 1010.3 |
| 20260905021527 | 62 | 196 | 1.0 | 4.0 | 0.00 | 0.00 | 0.00 | 43 | 1010.3 |
| 20260905020014 | 63 | 145 | 1.0 | 6.0 | 0.00 | 0.00 | 0.00 | 39 | 1010.3 |
| 20260905014514 | 65 | 200 | 2.0 | 5.0 | 0.00 | 0.00 | 0.00 | 39 | 1010.2 |
| 20260905013016 | 66 | 153 | 2.0 | 8.0 | 0.00 | 0.00 | 0.00 | 38 | 1010.1 |
| 20260905011513 | 67 | 205 | 2.0 | 8.0 | 0.00 | 0.00 | 0.00 | 37 | 1010.2 |